Vityazevo current weather conditions

sailwx.info

Wind from 220 at 9 knots

Air temperature 8.0° C
Visibility: greater than 5.4 NM
Dewpoint 5.0° C

Last reported at 2020-Jan-22 13:00 UTC.
Time now 2020-Jan-22 13:31 UTC

Location: N 45°00' E 037°21'.
View on Google Maps.

See reports from other nearby stations

  
Tides and Currents Weather Stations Pressure Air Temp Water Temp Dewpoint Dewpoint Depression Visibility Wind Speed Wind Dir Waves Ship Positions
date/time (UTC)wind fromknots sea level pressurealtimeterstation pressurevisibilityair tempwater tempwave heightnotes
2020-Jan-22 13:00 220 9 5.4 8.0
2020-Jan-22 12:30 220 7 5.4 8.0
2020-Jan-22 12:00 260 7 5.4 8.0
2020-Jan-22 11:30 240 9 5.4 8.0
2020-Jan-22 11:00 230 7 5.4 8.0
2020-Jan-22 10:30 240 9 5.4 7.0
2020-Jan-22 10:00 260 7 5.4 6.0
2020-Jan-22 09:30 270 5 5.4 6.0
2020-Jan-22 09:00 280 7 5.4 5.0
2020-Jan-22 08:30 290 9 5.4 5.0
2020-Jan-22 08:00 270 9 5.4 6.0
2020-Jan-22 07:30 280 7 5.4 6.0
2020-Jan-22 07:00 280 9 5.4 5.0
2020-Jan-22 06:30 280 7 5.4 5.0
2020-Jan-22 06:00 230 17 5.4 8.0
2020-Jan-22 05:30 230 15 5.4 8.0
2020-Jan-22 05:00 240 11 5.4 8.0
2020-Jan-22 04:30 250 11 5.4 7.0
2020-Jan-22 04:00 250 13 5.4 7.0
2020-Jan-22 03:30 240 13 5.4 7.0
2020-Jan-22 03:00 230 9 5.4 7.0
2020-Jan-22 02:30 220 9 5.4 7.0
2020-Jan-22 02:00 220 7 5.4 6.0
2020-Jan-22 01:30 240 9 5.4 6.0
2020-Jan-22 01:00 250 9 5.4 6.0
2020-Jan-22 00:30 250 7 5.4 6.0
2020-Jan-22 00:00 260 11 5.4 6.0
2020-Jan-21 23:30 240 11 5.4 6.0
2020-Jan-21 23:00 240 11 5.4 6.0
2020-Jan-21 22:30 230 13 5.4 6.0
2020-Jan-21 22:00 240 13 5.4 5.0
2020-Jan-21 21:30 240 15 5.4 5.0
2020-Jan-21 21:00 260 11 5.4 5.0
2020-Jan-21 20:30 250 11 5.4 5.0
2020-Jan-21 20:00 250 7 5.4 4.0
2020-Jan-21 19:30 220 5 5.4 3.0
2020-Jan-21 19:00 200 3 5.4 1.0
2020-Jan-21 18:30 230 3 5.4 1.0
2020-Jan-21 18:00 270 3 5.4 1.0
2020-Jan-21 17:30 290 3 5.4 1.0
2020-Jan-21 17:00 310 7 5.4 1.0
2020-Jan-21 16:30 290 5 5.4 1.0
2020-Jan-21 16:00 300 5 5.4 1.0
2020-Jan-21 15:30 300 5 5.4 1.0
2020-Jan-21 15:00 300 5 5.4 1.0
2020-Jan-21 14:30 290 7 5.4 1.0
2020-Jan-21 14:00 300 7 5.4 1.0
2020-Jan-21 13:30 310 7 5.4 1.0
2020-Jan-21 13:00 300 9 5.4 1.0
2020-Jan-21 12:30 320 9 5.4 1.0
2020-Jan-21 12:00 320 9 5.4 1.0 Light snow.
2020-Jan-21 11:30 330 7 5.4 1.0 Light snow.
2020-Jan-21 11:00 340 5 5.4 1.0
2020-Jan-21 10:30 330 5 5.4 1.0
2020-Jan-21 10:00 340 5 5.4 1.0
2020-Jan-21 09:30 5.4-0.0
2020-Jan-21 09:00 5.4-0.0
2020-Jan-21 08:30 5.4-0.0
2020-Jan-21 08:00 5.4-0.0 Light snow.
2020-Jan-21 07:30 5.4-1.0
2020-Jan-21 07:00 050 1 5.4-1.0
2020-Jan-21 06:30 5.4-1.0 Light snow.
2020-Jan-21 06:00 060 3 5.4-1.0
2020-Jan-21 05:30 060 5 5.4-1.0
2020-Jan-21 05:00 050 9 5.4-1.0
2020-Jan-21 04:30 020 11 5.4-1.0
2020-Jan-21 04:00 020 7 5.4-1.0
2020-Jan-21 03:30 020 9 5.4-1.0
2020-Jan-21 03:00 360 11 5.4-1.0
2020-Jan-21 02:30 360 9 5.4-1.0
2020-Jan-21 02:00 010 7 5.4-1.0
2020-Jan-21 01:30 010 7 5.4-1.0
2020-Jan-21 01:00 030 9 5.4-1.0
2020-Jan-21 00:30 010 11 5.4-1.0
2020-Jan-21 00:00 360 9 5.4-1.0
2020-Jan-20 23:30 360 9 5.4-1.0
2020-Jan-20 23:00 350 9 5.4-1.0
2020-Jan-20 22:30 360 9 5.4-0.0
2020-Jan-20 22:00 010 9 5.4-0.0
2020-Jan-20 21:30 020 9 5.4-0.0
2020-Jan-20 21:00 030 11 5.4-0.0
2020-Jan-20 20:30 010 9 5.4-0.0
2020-Jan-20 20:00 030 9 5.4-0.0
2020-Jan-20 19:30 020 9 5.4-0.0
2020-Jan-20 19:00 020 9 5.4-0.0
2020-Jan-20 18:30 030 9 5.4-0.0
2020-Jan-20 18:00 020 9 5.4-0.0
2020-Jan-20 17:30 030 9 5.4-1.0
2020-Jan-20 17:00 020 9 5.4-2.0
2020-Jan-20 16:30 030 7 5.4-2.0
2020-Jan-20 16:00 030 9 5.4-1.0
2020-Jan-20 15:30 030 13 5.4-1.0
2020-Jan-20 15:00 030 11 5.4-1.0
2020-Jan-20 14:30 020 9 5.4-1.0
2020-Jan-20 14:00 040 11 5.4-0.0
2020-Jan-20 13:30 040 15 5.4 1.0
2020-Jan-20 13:00 040 17 5.4 2.0